Home > Weather > Bridgeport > Past weeks

Flag for U.S.A. Weather for the Past 2 Weeks in Bridgeport, Connecticut, U.S.A.

Now
33 °F

Clear.


Feels Like: 28 °F
Forecast: 18 / 30 °F
Wind: 6 mph from West

Location: Sikorsky Memorial Airport

Current Time: Feb 10, 2016 at 8:39:50 PM

Latest Report: Feb 10, 2016 at 7:52 PM


Visibility: 10 mi

Pressure: 29.68 "Hg

Humidity: 61%

Dew point: 21 °F

Location of BridgeportLocation

Historic Weather in Bridgeport — Graph

°F

Bridgeport Temperature Yesterday

Maximum temperature yesterday: 32 °F (at 8:52 PM)
Minimum temperature yesterday: 23 °F (at 5:52 AM)
Average temperature yesterday: 28 °F

High & Low Weather Summary for the Past Weeks

 TemperatureHumidityPressure
High59 °F (Feb 1, 12:52 PM)97% (Feb 3, 7:52 PM)30.43 "Hg (Feb 3, 7:52 PM)
Low20 °F (Feb 6, 6:52 AM)35% (Feb 2, 1:52 PM)29.42 "Hg (Jan 29, 12:52 PM)
Average38 °F70%29.95 "Hg
* Reported Jan 26 6:52 PM — Feb 10 6:52 PM, Bridgeport, Weather by CustomWeather, © 2016

Note: Actual official high and low records may vary slightly from our data, if they occured in-between our weather recording intervals... More about our weather records

Advertising

Bridgeport Weather History for the Previous 24 Hours

 ConditionsComfort  
Time TempWeatherWind HumidityBarometerVisibility
6:52 PM
Wed, Feb 10
35 °FPassing clouds.6 mph59%29.68 "Hg10 mi
5:52 PM35 °FClear.7 mph56%29.66 "Hg10 mi
4:52 PM38 °FPassing clouds.9 mph51%29.63 "Hg10 mi
3:52 PM39 °FOvercast.13 mph50%29.61 "Hg10 mi
2:52 PM40 °FOvercast.9 mph51%29.58 "Hg10 mi
1:52 PM40 °FOvercast.7 mph58%29.57 "Hg10 mi
12:52 PM39 °FMore clouds than sun.8 mph60%29.57 "Hg10 mi
11:52 AM37 °FMostly cloudy.8 mph76%29.59 "Hg10 mi
10:52 AM35 °FFog.6 mph85%29.60 "Hg5 mi
9:52 AM34 °FFog.5 mph85%29.61 "Hg5 mi
8:52 AM33 °FFog.No wind88%29.61 "Hg2 mi
7:52 AM32 °FIce fog.3 mph92%29.61 "Hg2 mi
6:52 AM32 °FLight snow. Ice fog.3 mph92%29.59 "Hg2 mi
5:52 AM32 °FLight snow. Ice fog.5 mph88%29.59 "Hg3 mi
4:52 AM31 °FLight snow. Ice fog.5 mph89%29.59 "Hg2 mi
3:52 AM30 °FLight snow. Ice fog.No wind89%29.59 "Hg1 mi
2:52 AM30 °FLight snow. Ice fog.No wind85%29.59 "Hg4 mi
1:52 AM29 °FPartly cloudy.No wind85%29.60 "Hg8 mi
12:52 AM28 °FClear.No wind85%29.60 "Hg8 mi
11:52 PM
Tue, Feb 9
29 °FPassing clouds.No wind85%29.60 "Hg10 mi
10:52 PM30 °FPassing clouds.3 mph82%29.61 "Hg10 mi
9:52 PM31 °FMostly cloudy.3 mph79%29.63 "Hg10 mi
8:52 PM32 °FOvercast.No wind75%29.63 "Hg10 mi
Weather by CustomWeather, © 2016

See weather overviewHow to use our weather pages